Location: Tierra Monte Subdivision
(35.2092°N, 106.4864°W)
Time: 05:10:04
(UTC+00:00)

Daily predictions for brighter satellites

Satellite Brightness Start Highest point End
(mag) Time Altitude Azimuth Time Altitude Azimuth Time Altitude Azimuth
NOSS 3-1 (A) 4.3 01:36:50 10° NNW 01:44:38 66° ENE 01:53:23 10° SE
STARLINK-1143 4.4 01:47:03 10° WSW 01:51:01 53° NW 01:55:01 10° NE
Meteor 2-21 4.4 01:45:12 10° N 01:51:15 77° E 01:57:19 10° S
Meteor 2-21 Rocket 4.5 01:48:26 10° N 01:54:26 62° E 02:00:25 10° SSE
CZ-4 R/B 2.1 01:51:53 10° S 01:55:43 56° W 01:59:31 10° NNW
Abrixas rocket 2.5 01:54:48 10° SSW 01:57:34 38° SE 02:00:22 10° ENE
FREGAT/IRIS 4.4 01:57:41 10° E 01:58:54 12° ENE 02:00:07 10° NE
Cosmos 1470 4.3 01:56:59 10° SE 01:59:26 16° E 02:01:52 10° NE
Cosmos 1271 Rocket 3.3 01:59:34 10° NNW 02:03:17 60° W 02:06:57 10° S
Cosmos 2237 Rocket 3.1 01:59:09 10° SW 02:04:38 54° WNW 02:10:09 10° NNE
Cosmos 1269 Rocket 4.1 02:01:13 10° S 02:06:23 59° ESE 02:11:35 10° NNE
SJ-6B 4.4 02:04:28 11° ESE 02:07:05 19° ENE 02:09:57 10° NNE
Cosmos 2098 Rocket 4.4 02:03:50 10° NNW 02:07:24 42° W 02:11:48 10° SSW
OAO 2 Rocket 3.7 02:04:54 10° W 02:09:57 57° SSW 02:14:23 13° ESE
Meteor 2-5 Rocket 3.7 02:05:55 10° N 02:11:32 67° E 02:17:01 10° SSE
ATLAS 3B CENTAUR R/B 3.6 02:07:14 10° W 02:13:01 23° SSW 02:16:20 10° SSE
Cosmos 1733 3.0 02:10:33 10° S 02:14:17 72° E 02:18:02 10° N
Cosmos 1745 Rocket 4.0 02:08:50 10° N 02:15:08 71° E 02:21:18 10° SSE
Cosmos 1939 Rocket 4.2 02:11:35 10° S 02:15:23 43° W 02:19:10 10° NNW
Cosmos 2278 Rocket 2.4 02:11:22 10° NNW 02:17:03 77° WSW 02:22:42 10° SSE
CZ-2C R/B 3.9 02:14:15 10° NE 02:17:29 17° E 02:18:46 15° ESE
ARGOS 3.8 02:13:01 10° SE 02:17:53 36° ENE 02:22:47 10° N
Resurs 01 Rocket 3.7 02:23:19 10° ENE 02:23:19 10° ENE 02:23:44 10° ENE
SEDSat Delta rocket 4.3 02:20:59 10° SW 02:24:44 25° SSE 02:26:32 19° SE
Cosmos 1674 3.0 02:21:42 10° NNW 02:25:25 66° W 02:29:05 10° S
Meteor 1-24 Rocket 3.6 02:20:15 10° N 02:25:41 64° E 02:30:58 10° SSE
USA 234 3.3 02:21:23 10° NE 02:27:57 89° NW 02:34:30 10° SW
Cosmos 304 Rocket 3.8 02:23:49 10° N 02:28:32 56° ENE 02:32:40 13° SSE
KORONAS-FOTON 4.2 02:26:04 10° NNW 02:29:51 65° W 02:33:35 10° S
USA 186 2.2 02:28:02 18° SE 02:30:19 44° ENE 02:33:36 10° N
SL-14 R/B 3.7 02:26:33 10° N 02:30:25 41° E 02:33:04 18° SE
Orbus 7S? 2.2 02:29:38 10° NW 02:32:09 64° NE 02:32:55 37° ESE
CZ-2C R/B 3.1 02:29:42 10° SSE 02:34:43 55° ENE 02:39:31 10° N
Cosmos 371 Rocket 4.3 02:33:40 10° NNW 02:38:17 47° WSW 02:42:54 10° S
STARLINK-1118 2.6 02:36:19 10° NW 02:38:11 43° NNE 02:38:11 43° NNE
Cosmos 2315 Rocket 3.9 02:35:07 10° S 02:41:20 71° E 02:47:39 10° N
IRS-1A Rocket 4.2 02:35:47 10° SSE 02:41:23 83° ENE 02:47:07 10° NNW
FALCON 9 R/B 4.4 02:34:24 10° WSW 02:42:15 62° S 03:10:16 24° ESE
Cosmos 2369 Rocket 3.9 02:41:12 10° NNE 02:44:27 15° NE 02:45:05 15° ENE
SPOT 3 Rocket 4.1 02:43:19 26° ESE 02:45:30 38° ENE 02:50:18 10° N
Cosmos 1455 Rocket 4.1 02:43:32 10° SSW 02:47:41 46° W 02:51:53 10° N
Cosmos 1953 3.5 02:51:50 25° NE 02:51:50 25° NE 02:54:02 10° NNE
Cosmos 1331 Rocket 3.9 02:46:19 10° NNW 02:51:30 85° WSW 02:55:48 15° SSE
Cosmos 1626 1.9 02:48:05 10° N 02:51:47 77° E 02:53:26 31° SSE
MOS 1 Rocket 4.0 02:48:57 10° NNE 02:53:55 40° E 02:56:27 25° SSE
Meteor 2-15 Rocket 4.4 02:48:19 10° S 02:54:17 63° E 03:00:16 10° NNE
OAO 3 Copernicus 4.2 02:50:38 10° W 02:55:40 89° S 02:57:37 38° E
Ariane Rocket 3.5 02:54:06 10° S 02:59:06 60° WSW 03:04:07 10° NNW
Cosmos 1626 Rocket 3.4 02:57:29 10° N 03:01:52 67° E 03:03:03 45° SSE
STARLINK-1116 4.4 02:59:32 10° NNW 03:03:15 35° NE 03:03:24 35° NE
CZ-3A R/B 4.0 02:37:35 10° W 03:03:40 41° SSW 03:08:05 23° SSE
Meteor 2-15 4.5 02:59:31 10° S 03:05:34 81° W 03:11:39 10° N
Delta 2 Rocket 4.1 03:02:30 10° W 03:07:06 53° SSW 03:08:22 42° SSE
Cosmos 1943 Rocket 3.0 03:04:07 10° N 03:09:00 31° ENE 03:09:04 31° ENE
Cosmos 1602 Rocket 3.5 03:05:10 10° N 03:09:36 63° E 03:09:51 61° ESE
Meteor 2-10 4.2 03:12:05 49° ESE 03:12:18 50° E 03:17:33 10° NNE
STARLINK-1094 4.2 03:08:33 10° NNW 03:12:09 41° NNE 03:12:09 41° NNE
Cosmos 1709 Rocket 4.1 03:06:30 10° N 03:12:40 73° W 03:18:44 10° S
STARLINK-1066 4.1 03:10:59 10° NW 03:13:08 38° NNW 03:13:08 38° NNW
IRIDIUM 106 4.3 03:09:11 10° N 03:14:21 59° E 03:15:01 54° ESE
STARLINK-1081 4.2 03:11:27 10° NW 03:13:31 37° NNW 03:13:31 37° NNW
STARLINK-1070 4.2 03:11:54 10° NW 03:13:56 36° NNW 03:13:56 36° NNW
STARLINK-1069 4.2 03:12:18 10° NW 03:14:24 37° NNW 03:14:24 37° NNW
STARLINK-1085 4.2 03:12:45 10° NW 03:14:50 37° NNW 03:14:50 37° NNW
STARLINK-1086 4.3 03:13:14 10° NW 03:15:15 35° NNW 03:15:15 35° NNW
STARLINK-1095 4.3 03:13:41 10° NW 03:15:40 35° NNW 03:15:40 35° NNW
STARLINK-1117 4.2 03:13:03 10° NW 03:16:31 43° NNE 03:16:31 43° NNE
STARLINK-1077 4.3 03:14:07 10° NW 03:16:05 35° NNW 03:16:05 35° NNW
STARLINK-1075 4.4 03:14:35 10° NW 03:16:33 34° NNW 03:16:33 34° NNW
STARLINK-1093 4.3 03:15:00 10° NW 03:17:01 36° NNW 03:17:01 36° NNW
STARLINK-1074 4.4 03:15:26 10° NW 03:17:26 35° NNW 03:17:26 35° NNW
SL-16 R/B 3.7 03:13:31 10° SW 03:18:41 36° WNW 03:23:53 10° N
STARLINK-1087 4.4 03:15:55 10° NW 03:17:50 34° NW 03:17:50 34° NW
STARLINK-1088 4.5 03:16:23 10° NW 03:18:16 33° NW 03:18:16 33° NW
STARLINK-1115 4.4 03:16:48 10° NW 03:18:45 34° NW 03:18:45 34° NW
STARLINK-1076 4.5 03:17:14 10° NW 03:19:10 34° NW 03:19:10 34° NW
STARLINK-1092 4.5 03:17:42 10° NW 03:19:37 33° NW 03:19:37 33° NW
STARLINK-1078 4.2 03:17:35 10° NW 03:20:54 45° N 03:20:54 45° N
Aureole 3 3.5 03:22:27 65° SW 03:22:51 72° W 03:27:25 10° N
TSX-5 4.3 03:19:05 10° NNW 03:23:18 55° NNE 03:23:18 55° NNE
Cosmos 2074 Rocket 4.1 03:19:13 10° N 03:25:21 52° E 03:25:41 52° E
H-2A R/B 3.3 03:20:30 10° SSW 03:25:31 40° W 03:30:28 10° NNW
STARLINK-1108 4.3 03:22:06 10° NW 03:25:17 45° N 03:25:17 45° N
STARLINK-1071 4.4 03:26:39 10° NW 03:29:40 45° NNW 03:29:40 45° NNW
DMSP B5D2-2 4.3 03:28:09 10° N 03:33:20 70° WNW 03:38:31 10° SSW
STARLINK-1124 4.4 03:29:26 10° NW 03:32:33 47° NNW 03:32:33 47° NNW
NOSS 3-3 (A) 3.8 03:33:25 10° SSW 03:39:06 83° WNW 03:45:25 10° NNE
NOSS 3-3 (C) 3.8 03:33:31 10° SSW 03:39:11 84° WNW 03:45:31 10° NNE
Cosmos 1603 3.5 03:34:35 10° SSW 03:40:14 89° ESE 03:45:54 10° NNE
Meteor 1-16 Rocket 4.2 03:41:45 61° NNE 03:41:45 61° NNE 03:46:13 10° N
Cosmos 2251 Rocket 4.4 03:50:23 10° SW 03:55:32 49° WNW 04:00:45 10° N
CZ-2C R/B 3.4 03:53:01 10° N 03:57:59 48° WNW 04:00:18 28° SW
Resurs 01 Rocket 3.1 04:00:52 34° NNW 04:00:52 34° NNW 04:03:27 10° NNW
ATLAS 2AS CENTAUR R/B 4.2 04:01:51 10° N 04:07:26 25° NE 04:07:26 25° NE
Cosmos 2184 Rocket 4.3 04:10:13 10° NNW 04:16:18 61° W 04:16:18 61° W
Cosmos 2369 Rocket 3.4 04:23:21 10° NNW 04:26:54 39° NW 04:26:54 39° NW
Cosmos 1943 Rocket 4.1 04:47:51 10° NW 04:50:37 24° WNW 04:50:37 24° WNW
Tsikada Rocket 4.3 10:03:28 66° ENE 10:03:28 66° ENE 10:09:17 10° NNE
Cosmos 2219 Rocket 3.4 10:02:15 10° N 10:07:30 39° ENE 10:12:40 10° SE
ARIANE 5 R/B 4.1 10:05:41 10° N 10:08:04 27° N 10:08:04 27° N
ADEOS II 4.0 10:10:04 10° N 10:11:49 20° NNW 10:11:49 20° NNW
SJ 16-02 3.6 10:20:35 18° N 10:20:35 18° N 10:21:49 10° N
Cosmos 2034 Rocket 4.4 10:17:22 10° N 10:22:09 52° NNW 10:22:09 52° NNW
Lacrosse 5 rocket 3.6 10:29:56 17° NNE 10:29:56 17° NNE 10:31:07 10° NNE
CZ-2C R/B 4.3 10:28:36 10° NE 10:32:20 24° E 10:35:20 13° SE
Cosmos 2333 Rocket 2.3 10:27:55 10° NNW 10:33:35 73° ENE 10:39:12 10° SSE
Okean 1-7 3.8 10:38:15 48° E 10:38:23 49° E 10:42:36 10° NNE
GPS 2-04 Rocket1 4.1 10:42:36 34° E 10:42:36 34° E 10:44:48 10° E
IDEFIX/ARIANE 42P 2.5 10:39:27 10° N 10:44:21 72° NW 10:44:21 72° NW
STARLINK-27 4.5 10:45:49 45° NNE 10:45:49 45° NNE 10:48:42 10° NE
deb Chang Zheng 4 4.4 10:40:59 10° N 10:43:54 42° N 10:43:54 42° N
STARLINK-1023 4.4 10:47:12 49° NNE 10:47:12 49° NNE 10:50:25 10° NE
STARLINK-74 4.4 10:47:23 46° NNE 10:47:23 46° NNE 10:50:20 10° NE
STARLINK-1049 4.3 10:47:39 50° NNE 10:47:39 50° NNE 10:50:50 10° NE
Okean 1 3.8 10:48:14 56° ENE 10:48:14 56° ENE 10:51:43 10° NNE
STARLINK-39 4.4 10:49:00 47° NNE 10:49:00 47° NNE 10:52:00 10° NE
Cosmos 1743 3.9 10:44:21 10° N 10:48:03 41° E 10:49:48 25° SE
VEP-3 4.4 10:44:18 33° SSW 10:48:27 48° SSE 11:33:05 10° E
STARLINK-31 4.3 10:50:35 48° NNE 10:50:35 48° NNE 10:53:39 10° NE
STARLINK-69 4.3 10:52:24 46° N 10:52:24 46° N 10:55:28 10° NE
STARLINK-1051 4.2 10:52:27 53° NNE 10:52:27 53° NNE 10:55:48 10° NE
STARLINK-21 4.2 10:53:49 49° N 10:53:49 49° N 10:56:59 10° NE
CZ-4B R/B 3.1 10:55:48 28° N 10:55:48 28° N 10:57:37 10° N
Cosmos 1937 Rocket 4.0 10:55:27 42° NW 10:55:27 42° NW 10:59:48 10° N
STARLINK-45 4.3 10:55:39 45° N 10:55:39 45° N 10:58:49 10° NE
SL-4 R/B 3.8 10:53:44 19° NNW 10:55:54 31° NE 10:59:44 10° E
Cosmos 2242 Rocket 4.4 10:57:39 39° NNW 10:57:39 39° NNW 11:00:51 10° N
STARLINK-70 4.2 10:57:08 47° N 10:57:08 47° N 11:00:22 10° NE
USA 234 3.1 10:50:03 10° SE 10:56:36 86° SW 11:03:10 10° NW
STARLINK-76 4.1 10:58:34 49° N 10:58:34 49° N 11:01:54 10° NE
Cosmos 1689 Rocket 4.2 10:56:16 14° SE 10:58:18 28° ENE 11:00:56 10° NNE
STARLINK-23 4.1 11:00:10 49° N 11:00:10 49° N 11:03:33 10° NE
MSX 3.7 10:55:30 10° N 11:01:16 80° WNW 11:03:38 38° SSW
STARLINK-32 4.1 11:01:47 48° NNW 11:01:47 48° NNW 11:05:13 10° NE
STARLINK-1028 4.0 11:02:00 52° NNW 11:02:00 52° NNW 11:05:42 10° NE
Cosmos 2237 Rocket 3.5 10:56:29 10° N 11:01:48 40° ENE 11:07:06 10° SE
STARLINK-40 4.1 11:03:21 47° NNW 11:03:21 47° NNW 11:06:51 10° NE
STARLINK-44 4.1 11:04:56 46° NNW 11:04:56 46° NNW 11:08:29 10° NE
STARLINK-1007 4.1 11:06:11 47° NNW 11:06:11 47° NNW 11:10:07 10° NE
STARLINK-37 4.2 11:06:40 43° NNW 11:06:40 43° NNW 11:10:14 10° NNE
STARLINK-1021 4.0 11:06:46 48° NNW 11:06:46 48° NNW 11:10:39 10° NE
NOSS 3-2 (A) 3.6 11:04:21 28° S 11:07:16 63° ESE 11:13:19 10° NE
STARLINK-36 4.1 11:08:06 44° NNW 11:08:06 44° NNW 11:11:46 10° NE
Cosmos 2298 Rocket 4.0 11:05:37 36° SSW 11:07:54 87° ESE 11:13:15 10° NNE
STARLINK-68 4.3 11:09:56 39° NNW 11:09:56 39° NNW 11:13:35 10° NNE
ADEOS 3.6 11:04:32 10° NNE 11:09:47 80° ESE 11:13:31 20° S
Cosmos 2150 Rocket 4.0 11:08:09 30° SSW 11:10:52 84° ESE 11:16:19 10° NNE
STARLINK-63 4.2 11:11:25 40° NW 11:11:25 40° NW 11:15:09 10° NNE
STARLINK-1019 4.1 11:11:34 44° NW 11:11:36 44° NW 11:15:35 10° NE
Cosmos 389 Rocket 4.4 11:08:52 10° SSE 11:12:03 30° E 11:15:13 10° NNE
STARLINK-35 4.2 11:12:54 40° NW 11:12:54 40° NW 11:16:42 10° NNE
Cosmos 2219 3.2 11:11:49 40° SW 11:13:52 68° WNW 11:19:36 10° NNE
STARLINK-51 4.2 11:14:29 39° NW 11:14:32 39° NW 11:18:20 10° NNE
COBE Rocket 4.0 11:14:24 47° WSW 11:14:35 47° W 11:19:14 10° NNW
Cosmos 2279 Rocket 4.1 11:08:31 10° N 11:14:46 76° E 11:20:59 10° S
STARLINK-30 4.3 11:16:03 38° NW 11:16:11 38° NW 11:19:58 10° NNE
NOSS 0 Rocket 4.0 11:10:08 10° NNW 11:16:20 81° ENE 11:22:28 10° SSE
STARLINK-1012 4.2 11:16:21 39° NW 11:16:38 40° NW 11:20:32 10° NNE
STARLINK-72 4.3 11:17:39 36° NW 11:17:50 37° NW 11:21:36 10° NNE
COSMOS 2441 4.4 11:13:37 10° N 11:18:18 57° WNW 11:19:42 40° SW
Cosmos 2297 Rocket 2.1 11:15:34 28° SSW 11:18:39 84° WNW 11:24:21 10° NNE
STARLINK-50 4.3 11:19:16 35° NW 11:19:32 35° NW 11:23:16 10° NNE
Cosmos 372 Rocket 4.0 11:18:44 36° SW 11:20:46 63° WNW 11:25:59 10° N
STARLINK-59 4.5 11:20:57 32° NW 11:21:17 33° NW 11:24:58 10° NNE
H-2A R/B 4.4 11:18:08 10° NE 11:21:44 28° E 11:25:13 10° SSE
STARLINK-56 4.4 11:22:26 33° NW 11:22:50 33° NW 11:26:32 10° NNE
Cosmos 1125 Rocket 3.9 11:18:59 10° S 11:24:11 63° ESE 11:29:27 10° NNE
STARLINK-73 4.5 11:24:01 31° NW 11:24:31 32° NW 11:28:10 10° NNE
PSLV R/B 4.0 11:24:13 10° N 11:28:18 41° WNW 11:29:11 37° WSW
STARLINK-1020 4.4 11:26:45 24° SSW 11:28:52 48° SE 11:32:52 10° ENE
NOSS 3-2 (C) 3.7 11:27:47 11° SSW 11:33:04 60° ESE 11:39:07 10° NE
STARLINK-1052 4.2 11:31:34 23° SSW 11:33:52 54° SE 11:37:55 10° NE
Meteor 1-19 Rocket 4.2 11:28:14 10° SSW 11:33:56 68° W 11:39:34 10° N
COSMOS 2428 3.2 11:31:08 10° NW 11:36:16 36° WSW 11:41:21 10° SSW
CENTAUR R/B 3.1 11:31:33 10° S 11:36:56 51° ESE 11:43:11 10° NE
Hubble Space Telescope 2.9 11:37:44 13° SSW 11:37:44 13° SSW 11:39:13 10° S
Cosmos 1782 Rocket 3.6 11:35:06 10° NNW 11:39:21 54° W 11:43:33 10° S
Cosmos 1900 4.4 11:36:08 13° SSW 11:40:32 75° ESE 11:45:25 10° NNE
Cosmos 1263 4.5 11:37:52 10° S 11:42:00 79° W 11:45:21 10° N
Cosmos 2227 Rocket 2.3 11:39:36 18° SW 11:43:41 58° WNW 11:49:16 10° NNE
STARLINK-1033 3.8 11:41:06 21° SSW 11:43:46 68° SE 11:47:53 10° NE
SeaSat 1 2.5 11:42:11 10° S 11:46:59 53° WSW 11:51:48 10° NW
Cosmos 2221 Rocket 3.5 11:45:18 10° SSW 11:49:45 67° W 11:54:12 10° N
Cosmos 2219 Rocket 3.1 11:46:47 10° NW 11:51:08 24° W 11:55:28 10° SSW
STARLINK-1024 3.6 11:50:41 18° SW 11:53:43 86° SE 11:57:52 10° NE
